TimePST,TemperatureF,Dew PointF,Humidity,Sea Level PressureIn,VisibilityMPH,Wind Direction,Wind SpeedMPH,Gust SpeedMPH,PrecipitationIn,Events,Conditions,WindDirDegrees,DateUTC
12:10 AM,28.4,23.0,80,30.13,10.0,West,3.5,-,N/A,,Overcast,260,2013-01-11 08:10:00
12:30 AM,28.4,23.0,80,30.14,10.0,West,5.8,-,N/A,,Overcast,270,2013-01-11 08:30:00
12:50 AM,28.4,23.0,80,30.13,10.0,WNW,5.8,-,N/A,,Overcast,290,2013-01-11 08:50:00
1:10 AM,28.4,23.0,80,30.13,10.0,West,3.5,-,N/A,,Overcast,270,2013-01-11 09:10:00
1:30 AM,26.6,23.0,86,30.13,10.0,Calm,Calm,-,N/A,,Mostly Cloudy,0,2013-01-11 09:30:00
1:50 AM,28.4,23.0,80,30.13,10.0,Calm,Calm,-,N/A,,Mostly Cloudy,0,2013-01-11 09:50:00
2:10 AM,26.6,23.0,86,30.14,10.0,West,3.5,-,N/A,,Mostly Cloudy,270,2013-01-11 10:10:00
2:30 AM,26.6,23.0,86,30.14,10.0,Calm,Calm,-,N/A,,Partly Cloudy,0,2013-01-11 10:30:00
2:50 AM,24.8,23.0,93,30.13,10.0,Calm,Calm,-,N/A,,Clear,0,2013-01-11 10:50:00
3:10 AM,24.8,23.0,93,30.13,10.0,NW,3.5,-,N/A,,Clear,310,2013-01-11 11:10:00
3:30 AM,24.8,21.2,86,30.13,9.0,WSW,3.5,-,N/A,,Scattered Clouds,240,2013-01-11 11:30:00
3:50 AM,24.8,21.2,86,30.14,9.0,WSW,3.5,-,N/A,,Mostly Cloudy,250,2013-01-11 11:50:00
4:10 AM,24.8,21.2,86,30.13,10.0,West,3.5,-,N/A,,Mostly Cloudy,270,2013-01-11 12:10:00
4:30 AM,24.8,21.2,86,30.13,10.0,West,4.6,-,N/A,,Overcast,260,2013-01-11 12:30:00
4:50 AM,24.8,21.2,86,30.13,10.0,WSW,3.5,-,N/A,,Overcast,240,2013-01-11 12:50:00
5:10 AM,24.8,21.2,86,30.14,10.0,WSW,3.5,-,N/A,,Overcast,240,2013-01-11 13:10:00
5:30 AM,24.8,21.2,86,30.14,10.0,West,3.5,-,N/A,,Overcast,270,2013-01-11 13:30:00
5:50 AM,24.8,21.2,86,30.15,10.0,West,3.5,-,N/A,,Overcast,280,2013-01-11 13:50:00
6:10 AM,24.8,21.2,86,30.15,10.0,West,3.5,-,N/A,,Overcast,260,2013-01-11 14:10:00
6:30 AM,24.8,21.2,86,30.16,10.0,West,4.6,-,N/A,,Overcast,270,2013-01-11 14:30:00
6:50 AM,24.8,23.0,93,30.16,10.0,West,3.5,-,N/A,,Overcast,260,2013-01-11 14:50:00
7:30 AM,24.8,21.2,86,30.17,10.0,West,3.5,-,N/A,,Partly Cloudy,270,2013-01-11 15:30:00
8:10 AM,24.8,21.2,86,30.18,10.0,West,4.6,-,N/A,,Clear,280,2013-01-11 16:10:00
8:30 AM,26.6,23.0,86,30.18,10.0,Calm,Calm,-,N/A,,Partly Cloudy,0,2013-01-11 16:30:00
8:50 AM,26.6,23.0,86,30.19,10.0,Calm,Calm,-,N/A,,Partly Cloudy,0,2013-01-11 16:50:00
9:10 AM,28.4,23.0,80,30.19,10.0,Calm,Calm,-,N/A,,Partly Cloudy,0,2013-01-11 17:10:00
9:30 AM,28.4,23.0,80,30.19,10.0,West,4.6,-,N/A,,Partly Cloudy,270,2013-01-11 17:30:00
9:50 AM,28.4,23.0,80,30.19,10.0,West,3.5,-,N/A,,Scattered Clouds,270,2013-01-11 17:50:00
10:10 AM,30.2,24.8,80,30.19,10.0,WSW,3.5,-,N/A,,Scattered Clouds,250,2013-01-11 18:10:00
10:30 AM,32.0,24.8,75,30.18,10.0,Calm,Calm,-,N/A,,Mostly Cloudy,0,2013-01-11 18:30:00
10:50 AM,32.0,24.8,75,30.17,10.0,Calm,Calm,-,N/A,,Mostly Cloudy,0,2013-01-11 18:50:00
11:10 AM,33.8,24.8,70,30.17,10.0,ENE,3.5,-,N/A,,Partly Cloudy,60,2013-01-11 19:10:00
11:30 AM,35.6,24.8,65,30.16,10.0,Calm,Calm,-,N/A,,Mostly Cloudy,0,2013-01-11 19:30:00
11:50 AM,35.6,24.8,65,30.15,10.0,Calm,Calm,-,N/A,,Mostly Cloudy,0,2013-01-11 19:50:00
12:10 PM,35.6,24.8,65,30.14,10.0,Calm,Calm,-,N/A,,Mostly Cloudy,0,2013-01-11 20:10:00
12:30 PM,35.6,24.8,65,30.14,10.0,Calm,Calm,-,N/A,,Mostly Cloudy,0,2013-01-11 20:30:00
12:50 PM,37.4,23.0,56,30.13,10.0,Calm,Calm,-,N/A,,Scattered Clouds,0,2013-01-11 20:50:00
1:10 PM,37.4,24.8,60,30.13,10.0,Calm,Calm,-,N/A,,Mostly Cloudy,0,2013-01-11 21:10:00
1:30 PM,37.4,24.8,60,30.12,10.0,Calm,Calm,-,N/A,,Mostly Cloudy,0,2013-01-11 21:30:00
1:50 PM,37.4,24.8,60,30.12,10.0,Calm,Calm,-,N/A,,Scattered Clouds,0,2013-01-11 21:50:00
2:10 PM,39.2,23.0,52,30.12,10.0,Calm,Calm,-,N/A,,Mostly Cloudy,0,2013-01-11 22:10:00
2:30 PM,39.2,24.8,56,30.12,10.0,SSE,5.8,-,N/A,,Scattered Clouds,160,2013-01-11 22:30:00
2:50 PM,39.2,24.8,56,30.12,10.0,SSE,5.8,-,N/A,,Scattered Clouds,150,2013-01-11 22:50:00
3:10 PM,39.2,23.0,52,30.13,10.0,Calm,Calm,-,N/A,,Partly Cloudy,0,2013-01-11 23:10:00
3:30 PM,37.4,24.8,60,30.13,10.0,South,3.5,-,N/A,,Scattered Clouds,190,2013-01-11 23:30:00
3:50 PM,37.4,23.0,56,30.13,10.0,Calm,Calm,-,N/A,,Partly Cloudy,0,2013-01-11 23:50:00
4:10 PM,37.4,19.4,48,30.13,10.0,NNW,8.1,-,N/A,,Clear,340,2013-01-12 00:10:00
4:30 PM,37.4,17.6,45,30.14,10.0,Calm,Calm,-,N/A,,Clear,0,2013-01-12 00:30:00
4:50 PM,37.4,19.4,48,30.15,10.0,NNE,6.9,-,N/A,,Scattered Clouds,20,2013-01-12 00:50:00
5:10 PM,35.6,19.4,52,30.15,10.0,NNW,4.6,-,N/A,,Mostly Cloudy,340,2013-01-12 01:10:00
5:30 PM,33.8,19.4,56,30.16,10.0,NNW,3.5,-,N/A,,Mostly Cloudy,330,2013-01-12 01:30:00
5:50 PM,32.0,23.0,69,30.16,10.0,Calm,Calm,-,N/A,,Mostly Cloudy,0,2013-01-12 01:50:00
6:10 PM,32.0,23.0,69,30.17,10.0,NNE,3.5,-,N/A,,Mostly Cloudy,20,2013-01-12 02:10:00
6:30 PM,35.6,19.4,52,30.17,10.0,North,4.6,-,N/A,,Mostly Cloudy,360,2013-01-12 02:30:00
6:50 PM,32.0,21.2,64,30.17,10.0,NW,5.8,-,N/A,,Overcast,320,2013-01-12 02:50:00
7:10 PM,32.0,21.2,64,30.18,10.0,North,3.5,-,N/A,,Mostly Cloudy,350,2013-01-12 03:10:00
7:30 PM,32.0,23.0,69,30.18,10.0,NW,8.1,-,N/A,,Scattered Clouds,310,2013-01-12 03:30:00
7:50 PM,32.0,21.2,64,30.19,10.0,Calm,Calm,-,N/A,,Clear,0,2013-01-12 03:50:00
8:10 PM,30.2,21.2,69,30.19,10.0,NNW,5.8,-,N/A,,Clear,330,2013-01-12 04:10:00
8:30 PM,32.0,19.4,60,30.20,10.0,NW,4.6,-,N/A,,Clear,320,2013-01-12 04:30:00
8:50 PM,28.4,19.4,69,30.19,9.0,NW,4.6,-,N/A,,Clear,320,2013-01-12 04:50:00
9:10 PM,28.4,19.4,69,30.20,10.0,NNW,5.8,-,N/A,,Clear,330,2013-01-12 05:10:00
9:30 PM,28.4,19.4,69,30.20,10.0,West,3.5,-,N/A,,Clear,260,2013-01-12 05:30:00
9:50 PM,26.6,19.4,74,30.20,10.0,WSW,4.6,-,N/A,,Clear,240,2013-01-12 05:50:00
10:10 PM,26.6,19.4,74,30.21,8.0,West,3.5,-,N/A,,Clear,270,2013-01-12 06:10:00
10:30 PM,26.6,17.6,69,30.21,9.0,West,6.9,-,N/A,,Clear,280,2013-01-12 06:30:00
10:50 PM,26.6,17.6,69,30.21,10.0,West,5.8,-,N/A,,Clear,270,2013-01-12 06:50:00
11:10 PM,26.6,15.8,64,30.21,10.0,West,5.8,-,N/A,,Clear,270,2013-01-12 07:10:00
11:30 PM,26.6,15.8,64,30.21,10.0,West,4.6,-,N/A,,Clear,260,2013-01-12 07:30:00
11:50 PM,24.8,15.8,69,30.22,10.0,West,5.8,-,N/A,,Clear,270,2013-01-12 07:50:00